Hourly Weather Bolshie Toronkovichi

Today, 6 August, Friday

Time Temperature Precipitation Wind Pressure Humidity
00:00 +12°C° 0 mm 3 mps 736 mmHg 97%
01:00 +12°C° 0 mm 3 mps 736 mmHg 97%
02:00 +12°C° 0 mm 3 mps 735 mmHg 97%
03:00 +12°C° 0 mm 3 mps 735 mmHg 96%
04:00 +13°C° 0 mm 4 mps 735 mmHg 96%
05:00 +13°C° 0 mm 4 mps 734 mmHg 95%
06:00 +13°C° 0.2 mm 4 mps 734 mmHg 95%
07:00 +14°C° 0.2 mm 5 mps 734 mmHg 94%
08:00 +14°C° 0.2 mm 5 mps 733 mmHg 94%
09:00 +15°C° 0.3 mm 5 mps 733 mmHg 93%
10:00 +16°C° 0.3 mm 5 mps 733 mmHg 92%
11:00 +17°C° 0.3 mm 6 mps 732 mmHg 91%
12:00 +17°C° 2.2 mm 5 mps 732 mmHg 93%
13:00 +17°C° 2.2 mm 5 mps 731 mmHg 95%
14:00 +18°C° 2.2 mm 4 mps 731 mmHg 97%
15:00 +19°C° 0.3 mm 4 mps 731 mmHg 93%
16:00 +20°C° 0.3 mm 3 mps 731 mmHg 90%
17:00 +22°C° 0.3 mm 3 mps 731 mmHg 86%
18:00 +21°C° 1.1 mm 3 mps 730 mmHg 89%
19:00 +19°C° 1.1 mm 3 mps 730 mmHg 92%
20:00 +18°C° 1.1 mm 2 mps 730 mmHg 95%
21:00 +18°C° 0.3 mm 2 mps 730 mmHg 95%
22:00 +17°C° 0.3 mm 2 mps 730 mmHg 96%
23:00 +17°C° 0.3 mm 2 mps 730 mmHg 97%

Tomorrow, 7 August, Saturday

Time Temperature Precipitation Wind Pressure Humidity
00:00 +16°C° 0.1 mm 3 mps 730 mmHg 97%
01:00 +16°C° 0.1 mm 3 mps 730 mmHg 97%
02:00 +14°C° 0.1 mm 3 mps 730 mmHg 97%
03:00 +13°C° 0 mm 3 mps 730 mmHg 97%
04:00 +13°C° 0 mm 3 mps 731 mmHg 97%
05:00 +12°C° 0 mm 3 mps 731 mmHg 96%
06:00 +13°C° 0 mm 3 mps 731 mmHg 94%
07:00 +13°C° 0 mm 3 mps 731 mmHg 91%
08:00 +13°C° 0 mm 3 mps 731 mmHg 88%
09:00 +14°C° 0 mm 4 mps 732 mmHg 87%
10:00 +14°C° 0 mm 4 mps 732 mmHg 86%
11:00 +14°C° 0 mm 4 mps 732 mmHg 85%
12:00 +14°C° 0 mm 4 mps 732 mmHg 85%
13:00 +14°C° 0 mm 5 mps 733 mmHg 86%
14:00 +14°C° 0 mm 5 mps 733 mmHg 87%
15:00 +14°C° 0 mm 4 mps 733 mmHg 87%
16:00 +14°C° 0 mm 4 mps 733 mmHg 88%
17:00 +14°C° 0 mm 4 mps 733 mmHg 88%
18:00 +14°C° 0 mm 4 mps 734 mmHg 90%
19:00 +14°C° 0 mm 4 mps 734 mmHg 91%
20:00 +14°C° 0 mm 4 mps 734 mmHg 93%
21:00 +14°C° 0 mm 4 mps 734 mmHg 93%
22:00 +15°C° 0 mm 4 mps 735 mmHg 94%
23:00 +15°C° 0 mm 4 mps 735 mmHg 95%

Day after tomorrow, 8 August, Sunday

Time Temperature Precipitation Wind Pressure Humidity
00:00 +15°C° 0 mm 4 mps 735 mmHg 95%
01:00 +16°C° 0 mm 3 mps 736 mmHg 95%
02:00 +16°C° 0 mm 3 mps 736 mmHg 95%
03:00 +16°C° 0 mm 3 mps 737 mmHg 95%
04:00 +16°C° 0 mm 3 mps 737 mmHg 94%
05:00 +16°C° 0 mm 3 mps 737 mmHg 94%
06:00 +16°C° 0 mm 3 mps 738 mmHg 90%
07:00 +17°C° 0 mm 3 mps 738 mmHg 85%
08:00 +18°C° 0 mm 3 mps 738 mmHg 81%
09:00 +20°C° 0 mm 3 mps 739 mmHg 71%
10:00 +21°C° 0 mm 3 mps 739 mmHg 62%
11:00 +24°C° 0 mm 2 mps 739 mmHg 52%
12:00 +25°C° 0 mm 3 mps 739 mmHg 50%
13:00 +26°C° 0 mm 3 mps 739 mmHg 47%
14:00 +26°C° 0 mm 3 mps 739 mmHg 45%
15:00 +26°C° 0 mm 2 mps 739 mmHg 49%
16:00 +25°C° 0 mm 2 mps 739 mmHg 54%
17:00 +25°C° 0 mm 2 mps 739 mmHg 58%
18:00 +23°C° 0 mm 2 mps 739 mmHg 63%
19:00 +21°C° 0 mm 3 mps 739 mmHg 67%
20:00 +20°C° 0 mm 3 mps 739 mmHg 71%
21:00 +20°C° 0 mm 3 mps 739 mmHg 69%
22:00 +20°C° 0 mm 4 mps 739 mmHg 66%
23:00 +21°C° 0 mm 4 mps 739 mmHg 63%

9 August, Monday

Time Temperature Precipitation Wind Pressure Humidity
00:00 +20°C° 0 mm 3 mps 740 mmHg 68%
01:00 +19°C° 0 mm 3 mps 740 mmHg 72%
02:00 +18°C° 0 mm 3 mps 740 mmHg 77%
03:00 +17°C° 0 mm 2 mps 740 mmHg 83%
04:00 +17°C° 0 mm 2 mps 740 mmHg 89%
05:00 +16°C° 0 mm 1 mps 740 mmHg 95%
06:00 +19°C° 0 mm 1 mps 740 mmHg 89%
07:00 +20°C° 0 mm 1 mps 741 mmHg 83%
08:00 +22°C° 0 mm 1 mps 741 mmHg 77%
09:00 +23°C° 0.2 mm 2 mps 741 mmHg 71%
10:00 +24°C° 0.2 mm 2 mps 741 mmHg 66%
11:00 +25°C° 0.2 mm 2 mps 742 mmHg 61%
12:00 +25°C° 0.1 mm 2 mps 742 mmHg 58%
13:00 +26°C° 0.1 mm 2 mps 742 mmHg 56%
14:00 +26°C° 0.1 mm 2 mps 742 mmHg 53%
15:00 +25°C° 0.1 mm 3 mps 742 mmHg 60%
16:00 +22°C° 0.1 mm 4 mps 742 mmHg 67%
17:00 +21°C° 0.1 mm 4 mps 742 mmHg 74%
18:00 +20°C° 0 mm 3 mps 742 mmHg 79%
19:00 +19°C° 0 mm 3 mps 742 mmHg 83%
20:00 +18°C° 0 mm 2 mps 743 mmHg 87%
21:00 +17°C° 0 mm 2 mps 743 mmHg 90%
22:00 +16°C° 0 mm 2 mps 742 mmHg 92%
23:00 +15°C° 0 mm 2 mps 742 mmHg 94%

10 August, Tuesday

Time Temperature Precipitation Wind Pressure Humidity
00:00 +15°C° 0 mm 1 mps 743 mmHg 94%
01:00 +15°C° 0 mm 1 mps 743 mmHg 94%
02:00 +14°C° 0 mm 1 mps 743 mmHg 94%
03:00 +14°C° 0 mm 1 mps 743 mmHg 94%
04:00 +14°C° 0 mm 1 mps 743 mmHg 93%
05:00 +14°C° 0 mm 1 mps 742 mmHg 93%
06:00 +16°C° 0 mm 1 mps 743 mmHg 86%
07:00 +18°C° 0 mm 1 mps 743 mmHg 79%
08:00 +19°C° 0 mm 2 mps 743 mmHg 72%
09:00 +20°C° 0 mm 2 mps 743 mmHg 66%
10:00 +21°C° 0 mm 2 mps 743 mmHg 60%
11:00 +24°C° 0 mm 2 mps 743 mmHg 54%
12:00 +24°C° 0 mm 2 mps 742 mmHg 51%
13:00 +25°C° 0 mm 2 mps 742 mmHg 49%
14:00 +26°C° 0 mm 1 mps 742 mmHg 46%
15:00 +25°C° 0 mm 1 mps 742 mmHg 49%
16:00 +25°C° 0 mm 1 mps 741 mmHg 53%
17:00 +24°C° 0 mm 1 mps 741 mmHg 56%
18:00 +23°C° 0 mm 1 mps 741 mmHg 60%
19:00 +22°C° 0 mm 1 mps 741 mmHg 64%
20:00 +20°C° 0 mm 1 mps 741 mmHg 68%
21:00 +20°C° 0 mm 1 mps 741 mmHg 71%
22:00 +18°C° 0 mm 2 mps 741 mmHg 73%
23:00 +18°C° 0 mm 2 mps 741 mmHg 76%

11 August, Wednesday

Time Temperature Precipitation Wind Pressure Humidity
00:00 +17°C° 0 mm 2 mps 741 mmHg 78%
01:00 +16°C° 0 mm 2 mps 741 mmHg 81%
02:00 +16°C° 0 mm 2 mps 741 mmHg 83%
03:00 +16°C° 0 mm 2 mps 741 mmHg 84%
04:00 +15°C° 0 mm 2 mps 740 mmHg 84%
05:00 +15°C° 0 mm 2 mps 740 mmHg 85%
06:00 +17°C° 0 mm 2 mps 740 mmHg 80%
07:00 +18°C° 0 mm 2 mps 740 mmHg 74%
08:00 +20°C° 0 mm 2 mps 740 mmHg 69%
09:00 +21°C° 0 mm 2 mps 740 mmHg 64%
10:00 +23°C° 0 mm 2 mps 740 mmHg 59%
11:00 +24°C° 0 mm 2 mps 740 mmHg 54%
12:00 +25°C° 0.1 mm 2 mps 740 mmHg 54%
13:00 +25°C° 0.1 mm 2 mps 740 mmHg 53%
14:00 +25°C° 0.1 mm 2 mps 739 mmHg 53%
15:00 +24°C° 0.6 mm 2 mps 739 mmHg 61%
16:00 +21°C° 0.6 mm 2 mps 739 mmHg 69%
17:00 +20°C° 0.6 mm 3 mps 739 mmHg 77%
18:00 +19°C° 0.3 mm 2 mps 739 mmHg 82%
19:00 +18°C° 0.3 mm 2 mps 739 mmHg 86%
20:00 +16°C° 0.3 mm 1 mps 739 mmHg 91%
21:00 +16°C° 0.2 mm 1 mps 739 mmHg 91%
22:00 +16°C° 0.2 mm 1 mps 739 mmHg 92%
23:00 +16°C° 0.2 mm 1 mps 739 mmHg 93%
Show more

We Need Your Consent

Meteoprog and our Service Providers may store and access personal data such as cookies, device identifiers or other similar technologies on your device and process such data to personalise content and ads, as well as provide social media features and to analyse the traffic.

  • Store and/or access information on your device

    Cookies, device identifiers or other information can be stored or accessed on your device for the purposes indicated above.

  • Personalised ads and content, ad and content measurement, audience insights, and products development

    Ads and content can be personalised based on a profile. More data can be added to better personalise ads and content. Ad and content performance can be measured. Insights about the audience who saw the ads and content can be derived. Such data can be used to develop or improve user’s experience, systems and software.

By clicking ‘I Agree’ you will allow the use of indicated cookies, device identifiers, web beacons or other similar technologies. Your settings can be changed in the browser on your device.

For certain purposes, legitimate interests may be relied on, rather than consent. You can read more about this in our Privacy and Cookie Policy.